Flag for U.S.A. Weather past 2 weeks in Cheyenne, Wyoming, U.S.A.

Now
36 °F

Clear.


Feels Like: 36 °F
Forecast: 37 / 72 °F
Wind: No wind

Location: Cheyenne Airport


UV Index: 5 (Moderate)

Visibility: 10 mi


Pressure: 29.89 "Hg

Humidity: 70%

Dew point: 27 °F

Location of CheyenneLocation

Historic Weather in Cheyenne

°F

Cheyenne temperature yesterday

Maximum temperature yesterday: 57 °F (at 4:53 PM)
Minimum temperature yesterday: 29 °F (at 7:01 AM)
Average temperature yesterday: 43 °F

Past Weeks' High & Low Weather Summary

 TemperatureHumidityPressure
High71 °F (Apr 9, 2:53 PM)100% (Apr 17, 7:01 AM)30.43 "Hg (Apr 17, 7:01 AM)
Low12 °F (Apr 14, 5:53 AM)12% (Apr 9, 2:53 PM)29.54 "Hg (Apr 12, 4:53 PM)
Average41 °F53%29.93 "Hg
* Reported Apr 3 3:53 AM — Apr 18 3:53 AM, Cheyenne, Weather by CustomWeather, © 2014

Note: Actual official high and low records may vary slightly from our data, if they occured in-between our weather recording intervals... More about our weather records

Advertising

Historic Weather Conditions — Data for Previous 24 hours

 ConditionsComfort  
Time TempWeatherWind HumidityBarometerVisibility
3:53 AM
Apr 18
38 °FClear.5 mph68%29.88 "Hg10 mi
2:53 AM37 °FClear.12 mph76%29.89 "Hg10 mi
1:53 AM39 °FClear.3 mph73%29.91 "Hg10 mi
12:53 AM40 °FClear.3 mph70%29.91 "Hg10 mi
11:53 PM
Apr 17
42 °FClear.10 mph62%29.91 "Hg10 mi
10:53 PM42 °FClear.8 mph53%29.91 "Hg10 mi
9:53 PM45 °FClear.10 mph45%29.93 "Hg10 mi
8:53 PM47 °FClear.7 mph44%29.97 "Hg10 mi
7:53 PM50 °FSunny.13 mph36%29.96 "Hg10 mi
6:53 PM54 °FSunny.12 mph29%29.94 "Hg10 mi
5:53 PM56 °FSunny.15 mph27%29.93 "Hg10 mi
4:53 PM57 °FPassing clouds.14 mph26%29.92 "Hg10 mi
3:53 PM56 °FScattered clouds.8 mph29%29.95 "Hg10 mi
2:53 PM55 °FPartly sunny.13 mph33%29.97 "Hg10 mi
1:53 PM53 °FScattered clouds.5 mph24%29.99 "Hg10 mi
12:53 PM53 °FSunny.7 mph21%29.99 "Hg10 mi
11:53 AM52 °FSunny.13 mph22%30.00 "Hg10 mi
10:53 AM49 °FSunny.17 mph25%30.02 "Hg10 mi
9:53 AM44 °FSunny.5 mph55%30.06 "Hg10 mi
8:53 AM34 °FPassing clouds.6 mph88%30.11 "Hg8 mi
7:53 AM30 °FIce fog.7 mph100%30.11 "Hg1 mi
7:01 AM29 °FIce fog.10 mph100%30.07 "Hg1 mi
5:59 AM30 °FIce fog.13 mph96%30.06 "Hg1 mi
Weather by CustomWeather, © 2014

See weather overview